Block Island, RI

3:38 AM EDT on September 27, 2016 (GMT -0400)
Block Island State

Weather History for KBID - May, 2013

Change the Weather History Date:

Saturday, May 25, 2013

  Actual Average Record
Temperature  
Mean Temperature 48 °F -  
Max Temperature 51 °F 62 °F 78 °F (2007)
Min Temperature 44 °F 51 °F 33 °F (1997)
Degree Days  
Heating Degree Days 18    
Moisture  
Dew Point 43 °F    
Average Humidity 84    
Maximum Humidity 93    
Minimum Humidity 71    
Precipitation  
Precipitation 0.16 in - - ()
Sea Level Pressure  
Sea Level Pressure 29.77 in    
Wind  
Wind Speed 12 mph (NW)    
Max Wind Speed 21 mph    
Max Gust Speed 29 mph    
Visibility 8 miles    
Events      
Averages and records for this station are not official NWS values.
T = Trace of Precipitation, MM = Missing Value Source: NWS Daily Summary

Daily Weather History Graph

Daily Weather History Graph

Search for Another Location

Airport or City:

Trip Planner

Search our weather history database for the weather conditions in past years. The results will help you decide how hot, cold, wet, or windy it might be!

Date:

Astronomy

May. 25, 2013 Rise Set
Actual Time 5:19 AM EDT 8:07 PM EDT
Civil Twilight 4:47 AM EDT 8:39 PM EDT
Nautical Twilight 4:06 AM EDT 9:20 PM EDT
Astronomical Twilight 3:19 AM EDT 10:07 PM EDT
Moon 8:52 PM EDT (5/25) 5:43 AM EDT (5/25)
Length of Visible Light 15h 52m
Length of Day
14h 47m
Full, 100% of the Moon is Illuminated
May 25
Full
May 31
Last Quarter
Jun 8
New
Jun 16
First Quarter
Jun 23
Full

Hourly Weather History & Observations

Time (EDT) Temp. Windchill Dew Point Humidity Pressure Visibility Wind Dir Wind Speed Gust Speed Precip Events Conditions
12:15 AM 48.2 °F - 46.4 °F 93% 29.79 in 10.0 mi North 16.1 mph 23.0 mph 0.01 in   Mostly Cloudy
12:35 AM 48.2 °F - 44.6 °F 87% 29.80 in 10.0 mi North 15.0 mph 23.0 mph 0.01 in   Mostly Cloudy
12:55 AM 48.2 °F - 44.6 °F 87% 29.80 in 10.0 mi North 16.1 mph 23.0 mph 0.03 in   Mostly Cloudy
1:15 AM 48.2 °F - 44.6 °F 87% 29.76 in 10.0 mi NNE 16.1 mph 23.0 mph N/A   Overcast
1:35 AM 48.2 °F - 44.6 °F 87% 29.77 in 10.0 mi North 12.7 mph 23.0 mph N/A   Overcast
1:55 AM 48.2 °F - 44.6 °F 87% 29.77 in 10.0 mi North 11.5 mph 20.7 mph N/A   Overcast
2:15 AM 48.2 °F - 44.6 °F 87% 29.75 in 10.0 mi North 15.0 mph 20.7 mph N/A   Overcast
2:35 AM 48.2 °F - 44.6 °F 87% 29.77 in 10.0 mi WNW 8.1 mph - N/A   Overcast
2:55 AM 48.2 °F - 44.6 °F 87% 29.77 in 10.0 mi NW 8.1 mph - N/A   Overcast
3:15 AM 48.2 °F - 44.6 °F 87% 29.78 in 10.0 mi NW 5.8 mph - N/A   Overcast
3:35 AM 48.2 °F - 44.6 °F 87% 29.78 in 9.0 mi NW 9.2 mph - N/A   Overcast
3:55 AM 48.2 °F - 44.6 °F 87% 29.78 in 6.0 mi NW 6.9 mph - 0.01 in   Overcast
4:15 AM 48.2 °F - 44.6 °F 87% 29.77 in 10.0 mi NW 6.9 mph - N/A   Overcast
4:35 AM 48.2 °F - 44.6 °F 87% 29.76 in 10.0 mi NNW 9.2 mph - N/A   Overcast
4:55 AM 48.2 °F - 44.6 °F 87% 29.76 in 10.0 mi NNW 9.2 mph - 0.01 in   Overcast
5:15 AM 48.2 °F - 44.6 °F 87% 29.76 in 10.0 mi North 9.2 mph - N/A   Overcast
5:35 AM 48.2 °F - 46.4 °F 93% 29.77 in 6.0 mi NNW 8.1 mph - N/A   Overcast
5:55 AM 48.2 °F - 46.4 °F 93% 29.77 in 10.0 mi NNW 5.8 mph - N/A   Overcast
6:15 AM 48.2 °F - 46.4 °F 93% 29.77 in 5.0 mi NNW 9.2 mph - N/A   Overcast
6:35 AM 48.2 °F - 46.4 °F 93% 29.78 in 5.0 mi NNW 6.9 mph - 0.01 in   Overcast
6:55 AM 48.2 °F - 46.4 °F 93% 29.77 in 5.0 mi North 8.1 mph - 0.01 in   Overcast
7:16 AM 48.2 °F - 46.4 °F 93% 29.79 in 3.0 mi NW 6.9 mph - N/A   Overcast
7:35 AM 48.2 °F - 46.4 °F 93% 29.78 in 1.8 mi NW 6.9 mph - 0.01 in   Overcast
7:55 AM 48.2 °F - 46.4 °F 93% 29.77 in 3.0 mi NNW 6.9 mph - 0.02 in   Overcast
8:15 AM 48.2 °F - 46.4 °F 93% 29.78 in 3.0 mi NW 8.1 mph - N/A   Overcast
8:35 AM 48.2 °F - 46.4 °F 93% 29.78 in 3.0 mi NNW 9.2 mph - N/A   Overcast
8:55 AM 48.2 °F - 46.4 °F 93% 29.78 in 2.5 mi NW 10.4 mph - N/A   Overcast
9:15 AM 48.2 °F - 46.4 °F 93% 29.78 in 2.0 mi NW 10.4 mph - N/A   Overcast
9:35 AM 50.0 °F - 46.4 °F 87% 29.78 in 2.0 mi NW 6.9 mph - 0.01 in   Overcast
9:55 AM 50.0 °F - 46.4 °F 87% 29.78 in 2.0 mi NNW 4.6 mph - 0.02 in   Overcast
10:15 AM 50.0 °F - 46.4 °F 87% 29.77 in 2.0 mi NW 5.8 mph - N/A   Overcast
10:35 AM 50.0 °F - 46.4 °F 87% 29.77 in 2.0 mi NW 9.2 mph - N/A   Overcast
10:55 AM 50.0 °F - 46.4 °F 87% 29.77 in 2.0 mi NW 8.1 mph - N/A   Overcast
11:15 AM 50.0 °F - 46.4 °F 87% 29.76 in 2.0 mi NW 10.4 mph - N/A   Overcast
11:35 AM 50.0 °F - 46.4 °F 87% 29.76 in 3.0 mi NNW 9.2 mph - N/A   Overcast
11:55 AM 50.0 °F - 46.4 °F 87% 29.76 in 10.0 mi NNW 10.4 mph 17.3 mph N/A   Overcast
12:15 PM 51.8 °F - 46.4 °F 82% 29.75 in 8.0 mi NW 8.1 mph - N/A   Overcast
12:35 PM 51.8 °F - 46.4 °F 82% 29.75 in 10.0 mi NW 8.1 mph 16.1 mph N/A   Overcast
12:55 PM 51.8 °F - 46.4 °F 82% 29.75 in 10.0 mi NNW 9.2 mph 16.1 mph N/A   Overcast
1:15 PM 51.8 °F - 46.4 °F 82% 29.75 in 10.0 mi NW 9.2 mph 17.3 mph N/A   Overcast
1:35 PM 50.0 °F - 44.6 °F 82% 29.76 in 3.0 mi NNW 11.5 mph 18.4 mph N/A   Overcast
1:55 PM 48.2 °F - 44.6 °F 87% 29.76 in 3.0 mi NW 10.4 mph 20.7 mph N/A   Overcast
2:15 PM 48.2 °F - 44.6 °F 87% 29.75 in 10.0 mi NW 15.0 mph 21.9 mph N/A   Overcast
2:35 PM 50.0 °F - 44.6 °F 82% 29.75 in 10.0 mi WNW 9.2 mph 17.3 mph N/A   Overcast
2:55 PM 48.2 °F - 44.6 °F 87% 29.75 in 10.0 mi NW 10.4 mph 18.4 mph 0.01 in   Overcast
3:15 PM 48.2 °F - 44.6 °F 87% 29.75 in 5.0 mi NW 13.8 mph 19.6 mph N/A   Overcast
3:35 PM 48.2 °F - 42.8 °F 82% 29.74 in 10.0 mi NW 13.8 mph 20.7 mph N/A   Overcast
3:55 PM 48.2 °F - 42.8 °F 82% 29.74 in 10.0 mi NW 11.5 mph 21.9 mph N/A   Overcast
4:15 PM 50.0 °F - 42.8 °F 76% 29.74 in 10.0 mi NW 13.8 mph 23.0 mph N/A   Overcast
4:35 PM 48.2 °F - 42.8 °F 82% 29.74 in 9.0 mi NW 13.8 mph 21.9 mph N/A   Overcast
4:55 PM 48.2 °F - 42.8 °F 82% 29.75 in 10.0 mi NNW 15.0 mph 21.9 mph N/A   Overcast
5:15 PM 48.2 °F - 42.8 °F 82% 29.75 in 7.0 mi NNW 11.5 mph 21.9 mph N/A   Overcast
5:35 PM 48.2 °F - 41.0 °F 76% 29.75 in 10.0 mi NW 12.7 mph 21.9 mph N/A   Overcast
5:55 PM 48.2 °F - 39.2 °F 71% 29.76 in 10.0 mi NNW 16.1 mph 27.6 mph N/A   Overcast
6:15 PM 48.2 °F - 39.2 °F 71% 29.76 in 10.0 mi NW 13.8 mph 21.9 mph N/A   Overcast
6:35 PM 46.4 °F 39.2 °F 39.2 °F 76% 29.77 in 10.0 mi NNW 18.4 mph 26.5 mph N/A   Overcast
6:55 PM 46.4 °F 39.5 °F 37.4 °F 71% 29.78 in 10.0 mi NNW 17.3 mph 27.6 mph N/A   Overcast
7:15 PM 46.4 °F 40.1 °F 37.4 °F 71% 29.78 in 10.0 mi NW 15.0 mph 26.5 mph N/A   Overcast
7:35 PM 46.4 °F 40.1 °F 39.2 °F 76% 29.79 in 10.0 mi NW 15.0 mph 27.6 mph N/A   Overcast
7:55 PM 44.6 °F 38.8 °F 37.4 °F 76% 29.80 in 10.0 mi NW 11.5 mph 26.5 mph N/A   Overcast
8:15 PM 44.6 °F 38.1 °F 37.4 °F 76% 29.81 in 10.0 mi NW 13.8 mph 25.3 mph 0.01 in   Overcast
8:35 PM 44.6 °F 37.4 °F 37.4 °F 76% 29.81 in 10.0 mi NW 16.1 mph 23.0 mph 0.01 in   Overcast
8:55 PM 44.6 °F 38.4 °F 37.4 °F 76% 29.81 in 10.0 mi NW 12.7 mph 24.2 mph 0.02 in   Overcast
9:15 PM 44.6 °F 38.1 °F 37.4 °F 76% 29.81 in 10.0 mi WNW 13.8 mph 24.2 mph N/A   Overcast
9:35 PM 44.6 °F 38.1 °F 39.2 °F 81% 29.82 in 10.0 mi NW 13.8 mph 20.7 mph 0.01 in   Overcast
9:55 PM 44.6 °F 38.1 °F 37.4 °F 76% 29.82 in 10.0 mi NW 13.8 mph 23.0 mph 0.02 in   Overcast
10:15 PM 44.6 °F 38.8 °F 37.4 °F 76% 29.82 in 10.0 mi NW 11.5 mph 25.3 mph N/A   Overcast
10:35 PM - - - N/A% 29.82 in 10.0 mi NW 11.5 mph 27.6 mph N/A   Overcast
10:55 PM 44.6 °F 38.4 °F 37.4 °F 76% 29.82 in 10.0 mi WNW 12.7 mph 24.2 mph 0.01 in   Overcast
11:15 PM 44.6 °F 36.4 °F 37.4 °F 76% 29.82 in 10.0 mi NW 20.7 mph 28.8 mph N/A   Overcast
11:35 PM 44.6 °F 36.9 °F 37.4 °F 76% 29.81 in 10.0 mi WNW 18.4 mph 27.6 mph N/A   Overcast
11:55 PM 44.6 °F 37.8 °F 37.4 °F 76% 29.82 in 10.0 mi NW 15.0 mph 24.2 mph N/A   Overcast